Find Starlink 36685

NORAD ID: 68718 Int'l Des: 2026-081 Owner: SPXS Country: US Constellation: starlink operational
LEOCIRCULAR

リアルタイム位置

3D地球を読み込み中...

Starlink 36685について

説明を読み込み中...

次回通過

Passes for default location (London). Set your location on the main map for personalized predictions.

高度履歴

Loading altitude history...

軌道要素

1 68718C 26081U 26105.39354167 .00626730 00000+0 80523-3 0 1052
2 68718 53.1628 237.9464 0007107 303.8298 71.8085 16.06130181 17
Epoch: Apr 15, 2026 • Age: 20 hours

現在のステータス

高度 264.4 km
速度 7.75 km/s
衛星直下点 52.79°N, 31.15°E
打ち上げ日 Apr 14, 2026
運用期間 1 days
タイプ internet

技術仕様

分類 Payload
質量 575.00 kg
乾燥質量 530.00 kg
総質量 575.00 kg
長さ 0.30 m
直径 4.10 m
スパン 29.00 m
形状 Box + pan
製造者 SPXS
バスタイプ Starlink V2MO
フェーズステータス In Orbit
所有者/国 SPXS/US

Most Searched